Tracking 35237 objects as of 6-Sep-2026
HD Live streaming from Space Station
objects crossing your sky now

STARLINK-11705

Track STARLINK-11705 now!
10-day predictions
STARLINK-11705 is classified as:


NORAD ID: 63758
Int'l Code: 2025-089H
Launch date: April 29, 2025
Source: United States (US)
Launch site: AIR FORCE EASTERN TEST RANGE (AFETR)
Your satellite tracking list
Your tracking list is empty




NASA's NSSDC Master Catalog

Two Line Element Set (TLE):
1 63758U 25089H   26249.13877274  .00095908  00000-0  74087-3 0  9995
2 63758  43.0001 284.7178 0001342 265.1084  94.9631 15.70887260 78463
Source of the keplerian elements: AFSPC